Flag for Austria Weather past 2 weeks in Steyr, Upper Austria, Austria

Now
42 °F

Quite cool.


Feels Like: 42 °F
Forecast: 38 / 55 °F
Wind: 1 mph from West

Location: Kremsmuenster

Current Time: Oct 25, 2014 at 7:58:16 PM

Latest Report: Oct 25, 2014 at 7:00 PM


Visibility: N/A

Pressure: 30.27 "Hg

Humidity: 93%

Dew point: 40 °F

Location of SteyrLocation

Historic Weather in Steyr — Graph

°F

Steyr temperature yesterday

Maximum temperature yesterday: 47 °F (at 4:00 PM)
Minimum temperature yesterday: 45 °F (at 1:00 AM)
Average temperature yesterday: 46 °F

Past Weeks' High & Low Weather Summary

 TemperatureHumidityPressure
High73 °F (Oct 20, 3:00 PM)100% (Oct 13, 8:00 AM)30.32 "Hg (Oct 13, 8:00 AM)
Low38 °F (Oct 23, 1:00 AM)55% (Oct 20, 3:00 PM)29.60 "Hg (Oct 21, 11:00 PM)
Average54 °F89%30.00 "Hg
* Reported Oct 10 6:00 PM — Oct 25 6:00 PM, Steyr, Weather by CustomWeather, © 2014

Note: Actual official high and low records may vary slightly from our data, if they occured in-between our weather recording intervals... More about our weather records

Advertising

Steyr weather history for previous 24 hours

 ConditionsComfort  
Time TempWeatherWind HumidityBarometerVisibility
6:00 PM
Oct 25
43 °FQuite cool.1 mph90%30.24 "HgN/A
5:00 PM44 °FFog.No wind90%30.24 "Hg2 mi
4:00 PM43 °FQuite cool.1 mph88%30.23 "HgN/A
3:00 PM43 °FQuite cool.1 mph88%30.23 "HgN/A
2:00 PM43 °FQuite cool.1 mph89%30.23 "HgN/A
1:00 PM42 °FPassing clouds.1 mph92%30.24 "Hg10 mi
12:00 PM41 °FQuite cool.1 mph90%30.24 "HgN/A
11:00 AM41 °FFog.2 mph93%30.24 "Hg2 mi
10:00 AM41 °FQuite cool.2 mph96%30.23 "HgN/A
9:00 AM41 °FQuite cool.1 mph98%30.22 "HgN/A
8:00 AM40 °FFog.2 mph98%30.21 "Hg1 mi
7:00 AM40 °FFog.2 mph99%30.20 "Hg1 mi
6:00 AM41 °FQuite cool.2 mph99%30.19 "HgN/A
5:00 AM41 °FQuite cool.1 mph98%30.19 "HgN/A
4:00 AM40 °FQuite cool.2 mph99%30.19 "HgN/A
3:00 AM41 °FQuite cool.1 mph98%30.20 "HgN/A
2:00 AM42 °FQuite cool.1 mph97%30.19 "HgN/A
1:00 AM44 °FQuite cool.1 mph97%30.20 "HgN/A
12:00 AM45 °FCool.3 mph97%30.20 "HgN/A
11:00 PM
Oct 24
46 °FCool.No wind97%30.21 "HgN/A
10:00 PM46 °FCool.2 mph93%30.21 "HgN/A
9:00 PM46 °FCool.2 mph93%30.20 "HgN/A
8:00 PM46 °FLow clouds.3 mph94%30.20 "Hg3 mi
7:00 PM46 °FCool.3 mph94%30.20 "HgN/A
Weather by CustomWeather, © 2014

See weather overviewHow to use our weather pages